User: anonymous   Login
Location: Unspecified
(0.0000°N, 0.0000°E)
Time: 05:35:56
(UTC+02:00)
Language:

Cosmos 1437 - Orbit

View from above orbital plane
View from above orbital plane
View from above satellite
View from above satellite

Ground track
Ground track

The orbit data is extracted from the following two-line orbital elements,

1 13770U 83003A   15182.19574656  .00005996  00000-0  14806-3 0  9993
2 13770 081.1632 302.1727 0008016 246.5454 184.3123 15.40285616775726
Epoch (UTC): 01 July 2015 04:41:52
Eccentricity: 0.0008016
inclination: 81.1632°
perigee height: 440 km
apogee height: 451 km
right ascension of ascending node: 302.1727°
argument of perigee: 246.5454°
revolutions per day: 15.40285616
mean anomaly at epoch: 184.3123°
orbit number at epoch: 77572

The dashed part of the orbit path shows where the satellite is in the earth's shadow,  

DLR